Theta_e
324 325 325 325 325 325 326 326 326 326 326 326 327 328 327 326 322 304 299 308 312 329 325 305 302 301 301 300 300 297 291 287 287 288 291 293 291 290 290 290 288 289 289 291 292
322 323 325 325 325 325 326 325 325 325 326 326 326 327 326 324 304 300 316 324 328 328 303 301 299 300 298 297 297 293 289 290 291 290 290 293 292 291 290 287 286 286 288 290 290
320 321 323 324 324 325 325 325 324 325 325 325 325 326 324 317 300 299 324 326 326 322 304 301 300 298 294 295 294 291 288 292 293 294 294 293 290 291 290 287 288 287 287 288 287
318 319 320 323 323 324 325 325 323 324 325 325 324 325 322 307 291 302 325 324 322 309 302 299 298 295 293 292 294 292 293 293 296 296 293 291 291 290 290 291 290 289 289 286 286
318 318 318 321 322 324 325 324 323 324 324 324 324 324 312 301 298 306 319 314 303 303 300 298 296 293 291 291 293 292 292 295 295 295 294 293 291 291 290 288 288 287 287 286 286
319 319 319 320 321 323 324 324 323 323 323 324 324 322 306 296 306 304 302 302 301 301 298 298 295 296 294 293 293 291 293 294 294 294 293 292 289 289 289 285 285 287 285 285 285
318 319 319 320 321 321 322 323 322 321 322 324 325 312 301 300 304 303 304 300 300 299 298 298 298 295 294 291 294 292 290 291 290 292 292 292 289 288 288 286 285 284 284 284 284
317 318 318 319 320 320 321 322 320 321 323 323 324 307 298 305 305 303 301 300 300 300 300 299 298 297 293 294 292 289 288 286 289 291 290 290 286 291 287 285 284 283 282 283 284
316 317 318 319 320 319 320 320 319 321 324 323 308 303 297 310 302 303 299 298 299 299 298 302 298 293 292 289 288 287 285 284 288 291 289 288 287 290 286 285 285 283 283 283 282
315 316 318 319 319 319 319 319 318 318 316 313 305 300 298 298 302 303 298 299 297 298 298 296 292 290 288 288 284 285 283 284 283 287 287 286 288 291 287 284 286 285 283 283 282
315 315 317 318 319 320 313 301 299 295 297 296 295 295 297 302 303 300 298 298 297 294 293 292 290 288 289 289 289 287 283 283 285 287 286 286 288 291 291 285 285 283 282 283 283
315 315 316 317 318 318 302 297 296 296 293 296 296 296 300 300 296 298 298 294 293 290 291 290 288 291 291 289 287 284 283 283 285 286 286 285 285 289 291 288 287 287 284 283 283
313 314 316 317 317 305 298 297 304 300 291 293 296 297 297 301 296 296 297 293 290 289 289 288 290 292 290 286 285 283 282 282 283 284 283 281 282 282 286 288 288 287 287 285 283
314 313 317 316 305 298 297 301 302 299 282 287 292 296 298 297 293 296 295 292 289 289 289 289 290 289 286 286 286 282 285 283 282 280 277 282 279 280 285 286 285 286 284 284 283
314 313 317 312 303 297 300 302 300 292 274 288 292 299 296 293 292 292 293 291 289 290 290 289 286 286 285 287 287 285 283 282 281 279 276 277 275 278 279 282 287 287 286 284 282
314 314 314 306 299 298 300 297 294 284 276 285 293 292 291 291 291 292 291 292 290 289 287 288 287 287 287 285 285 285 282 280 277 276 272 278 277 277 278 282 284 284 283 283 280
314 314 310 305 300 299 299 294 284 277 286 285 289 290 289 289 290 291 288 287 287 284 284 286 285 284 287 284 285 283 282 277 274 271 276 275 273 282 283 284 285 285 282 281 279
315 313 310 306 300 299 294 290 279 282 283 288 289 288 288 289 288 288 286 285 288 286 283 283 283 285 286 286 285 281 282 278 270 270 277 273 275 282 284 284 280 279 279 280 278
314 309 306 307 301 299 289 281 282 285 286 288 288 285 285 287 288 286 285 285 289 289 288 283 283 284 285 284 285 281 279 282 276 264 268 278 279 282 284 282 280 279 280 279 278
310 307 306 307 303 299 283 287 286 290 289 289 284 287 283 286 285 285 285 287 289 290 291 288 284 282 281 282 280 280 282 277 277 271 265 275 277 280 285 283 284 278 278 278 277
308 300 302 304 304 296 288 286 287 292 292 289 286 283 286 286 286 283 285 287 290 288 290 288 287 282 280 280 279 277 278 277 279 276 272 268 280 283 285 286 286 281 280 278 278
306 294 301 306 295 295 289 288 292 289 292 292 290 288 287 288 286 284 285 290 291 289 286 287 285 282 283 278 278 280 280 281 278 275 273 273 280 283 285 286 283 281 280 278 278
301 299 302 303 289 290 288 288 291 288 289 291 290 290 290 288 285 286 288 290 289 289 287 287 283 280 281 279 279 277 280 280 280 277 275 274 280 282 282 281 279 280 279 277 277
300 291 294 296 296 290 289 288 288 291 291 290 288 290 287 286 290 287 285 288 289 290 295 293 285 282 281 282 281 277 279 280 282 278 280 280 283 288 289 290 291 285 278 278 277
301 294 295 287 290 293 291 289 287 287 291 291 289 289 288 286 287 287 288 286 286 290 287 288 284 285 286 287 280 280 281 281 278 281 279 283 283 287 289 290 292 292 286 278 276
301 296 295 293 294 292 292 289 288 288 289 288 288 289 291 288 288 286 289 287 288 282 282 283 283 285 283 285 283 281 285 285 280 281 281 283 283 291 293 294 292 292 286 279 276
309 303 298 293 291 289 289 289 290 292 293 293 292 291 289 290 294 295 292 290 291 288 281 279 280 274 279 281 279 277 282 285 287 287 284 280 285 290 290 290 290 290 282 280 278
Wind_Speed
19 20 20 19 19 18 17 16 16 16 12 11 9 9 8 10 4 4 3 3 4 9 4 4 2 5 3 4 3 3 5 2 7 7 5 6 5 1 1 6 1 2 4 4 11
19 19 20 21 19 17 16 16 15 16 14 12 9 8 8 8 3 4 2 4 5 5 3 5 4 4 4 3 3 5 4 7 5 5 3 4 4 8 5 3 3 0 1 4 7
19 20 21 22 22 19 17 14 12 14 15 12 9 7 6 4 3 2 2 5 6 1 2 2 2 2 4 2 3 1 3 3 3 4 3 3 3 5 7 6 9 12 14 8 5
19 21 22 22 23 24 21 16 13 12 13 11 8 7 5 1 3 1 4 4 4 5 3 4 6 5 3 2 2 2 0 2 2 3 2 2 7 5 9 5 1 8 14 8 9
15 18 21 21 23 24 23 20 16 13 14 10 6 7 1 2 7 2 3 5 2 2 5 3 5 1 1 1 3 2 1 3 2 4 5 5 5 8 9 1 4 11 9 10 10
15 15 17 19 21 23 24 24 19 14 16 10 4 5 2 4 3 3 2 2 4 4 3 6 4 2 3 0 1 0 3 5 6 6 4 5 2 4 2 6 7 12 11 9 9
16 17 18 18 20 23 24 25 22 16 14 7 2 2 2 11 2 3 5 2 2 2 4 2 3 4 2 1 2 1 5 6 3 3 4 5 6 11 4 7 9 9 7 8 10
17 17 18 19 20 23 25 26 22 17 9 3 3 1 7 2 1 2 2 4 4 5 5 3 2 6 3 0 6 4 4 5 2 4 1 4 11 7 8 12 12 10 9 10 10
18 17 17 19 20 23 26 28 21 7 2 4 2 3 9 3 1 2 2 4 3 3 4 3 4 4 4 4 5 6 4 3 9 6 3 5 11 7 7 9 11 13 14 13 10
16 17 16 18 20 21 27 25 10 3 1 1 1 4 2 3 1 2 2 4 3 3 3 5 5 3 4 4 4 5 4 5 8 3 4 5 18 13 8 12 19 16 14 14 14
15 16 17 16 19 21 14 7 7 4 4 7 4 4 0 1 1 2 2 4 3 1 4 3 3 7 8 7 4 4 4 8 6 5 4 11 14 22 9 11 15 12 14 17 18
13 15 16 18 19 21 1 3 2 1 10 4 4 5 3 2 2 4 3 5 4 7 4 3 9 6 4 4 5 4 3 9 9 1 6 11 17 16 17 12 14 16 17 20 16
14 15 12 13 17 4 3 2 4 1 1 10 4 4 3 6 6 5 8 5 5 6 7 8 4 6 5 4 5 4 6 6 8 6 5 8 10 6 7 8 8 10 11 15 19
13 13 11 16 2 3 1 4 2 2 4 9 4 3 2 3 4 1 4 3 2 10 8 7 2 7 4 6 8 4 5 3 4 5 5 5 14 5 7 12 7 9 11 13 16
8 11 7 5 4 1 0 3 3 3 5 7 4 1 2 4 2 1 1 2 5 6 7 9 8 6 6 8 8 8 3 2 1 3 4 4 6 8 3 9 19 9 13 14 15
7 8 1 1 1 2 0 1 2 6 10 5 3 5 4 3 2 2 2 4 1 4 2 7 2 6 7 3 3 4 3 5 4 2 3 6 8 5 7 10 8 6 7 9 11
10 7 5 3 3 1 0 3 3 7 3 6 6 4 3 6 5 7 7 7 9 4 7 1 6 2 3 4 2 3 6 4 6 3 11 4 3 13 9 12 10 10 5 9 10
11 9 5 3 2 3 2 5 10 8 9 3 3 2 6 7 4 5 5 5 8 2 4 6 10 10 6 7 8 7 8 8 9 5 10 2 12 10 11 9 6 5 8 7 10
10 2 3 4 6 2 3 8 11 10 9 9 3 3 5 4 4 6 9 6 9 14 12 8 9 2 1 2 4 6 7 3 6 3 3 7 10 8 10 10 8 8 6 10 11
4 3 6 10 9 3 3 21 9 9 8 5 14 11 11 9 8 9 10 6 7 15 1 4 5 2 2 2 2 4 4 5 2 3 7 12 17 15 14 10 11 9 11 9 9
4 4 1 12 7 3 12 11 7 9 8 10 11 8 10 11 9 8 9 4 7 6 4 6 5 3 3 10 12 4 3 1 2 6 7 4 17 6 8 10 12 11 11 11 13
6 6 7 12 7 6 16 8 8 7 8 10 7 13 14 12 10 9 13 14 11 10 12 7 6 9 16 1 1 2 8 12 8 8 4 4 30 2 7 10 7 8 11 8 11
5 5 4 8 11 15 4 5 10 6 10 16 13 9 6 11 6 11 12 5 11 12 13 11 4 7 8 1 2 8 9 7 1 3 13 8 26 5 6 9 8 10 9 9 10
5 6 5 6 6 15 16 12 10 3 18 6 5 9 3 7 10 10 5 6 9 10 5 16 9 13 20 13 7 7 13 16 23 14 16 33 27 46 21 25 27 15 10 11 13
6 5 6 9 18 19 11 7 20 11 8 9 11 20 9 12 17 20 8 1 1 3 1 10 14 16 22 29 6 8 14 17 22 29 20 34 29 39 27 31 29 17 10 10 11
8 7 5 4 11 23 23 23 29 18 8 9 20 9 21 24 29 27 18 5 10 6 6 3 13 12 26 22 9 10 35 16 25 27 25 28 40 28 31 28 27 27 10 11 14
9 3 8 11 13 12 22 33 34 25 20 23 18 17 20 26 23 22 7 3 11 15 12 8 5 3 26 6 7 10 29 31 35 27 26 29 43 32 31 27 27 19 11 13 15
Wind_Direction
2 1 359 357 355 350 346 346 341 340 341 338 344 336 341 341 327 40 52 235 282 312 319 275 53 3 62 81 71 132 61 176 197 158 234 168 143 50 65 123 111 265 173 219 139
359 356 356 352 350 349 346 344 340 334 336 338 340 334 335 342 45 59 183 292 286 301 47 54 14 360 56 52 33 79 104 219 189 199 222 173 162 166 153 158 227 309 65 118 126
355 352 352 351 346 344 345 343 336 330 331 333 332 325 322 327 332 189 126 327 322 237 93 85 57 39 68 35 14 139 172 215 250 219 204 181 142 168 145 220 203 197 179 167 143
352 349 348 349 346 342 340 342 336 326 323 325 325 310 315 104 255 151 7 346 353 142 101 55 23 43 62 46 356 33 25 224 288 231 140 246 122 229 199 212 339 195 164 158 164
347 348 344 343 344 342 337 338 339 326 318 316 313 297 275 0 249 11 3 357 17 53 54 72 61 80 33 316 9 106 295 307 282 286 248 117 223 239 241 259 102 133 149 168 175
341 339 341 342 341 339 335 332 334 327 319 308 292 304 101 243 124 35 18 63 48 57 32 38 114 142 103 173 136 197 260 254 257 244 246 198 239 355 268 119 130 154 176 175 178
339 339 338 340 340 337 331 326 326 325 315 295 255 329 119 237 67 48 84 97 41 86 109 42 119 97 123 24 324 300 322 316 210 204 242 151 279 239 141 144 162 184 192 186 200
334 336 337 338 338 335 328 322 320 314 306 174 135 28 245 7 180 57 100 75 63 44 97 129 114 108 68 220 14 25 53 2 215 154 5 134 269 264 168 160 198 201 202 200 208
329 331 334 337 336 333 325 315 314 312 100 137 114 125 271 337 307 103 26 119 76 54 57 98 71 95 45 75 10 7 277 283 312 199 131 170 269 250 166 191 214 210 207 207 211
322 328 328 336 333 330 325 306 287 89 103 221 7 47 271 222 155 92 22 113 107 100 51 46 52 70 49 85 237 239 279 262 245 223 192 220 263 264 205 200 221 217 208 208 209
316 324 327 332 329 326 340 352 10 346 17 197 201 234 39 61 70 89 130 95 82 98 194 7 86 214 226 202 179 165 199 241 252 239 240 247 248 271 251 219 235 220 207 212 212
311 318 322 326 321 321 330 63 92 161 309 279 241 278 241 186 267 216 124 158 153 207 118 35 237 204 125 143 172 165 226 264 280 308 190 268 257 260 254 244 223 219 214 215 202
308 311 311 315 316 11 6 50 328 298 219 294 233 211 197 144 220 241 147 149 170 182 190 176 211 113 150 171 171 213 195 238 239 327 253 298 266 239 274 266 245 223 221 214 205
304 306 312 317 79 317 25 316 335 317 46 270 253 275 80 131 257 101 198 138 195 210 163 230 203 172 170 216 153 243 212 236 290 8 259 24 290 243 245 273 245 236 213 210 201
277 301 315 12 300 131 296 310 317 69 306 266 196 174 124 169 115 298 341 87 197 184 131 241 170 176 190 215 165 224 136 161 125 224 347 241 280 259 21 262 265 250 227 216 201
232 276 269 311 333 259 242 343 44 48 248 293 162 180 144 180 186 116 125 54 71 136 257 248 314 173 205 82 154 127 92 60 59 64 292 223 190 216 186 208 253 249 228 207 195
214 225 158 133 265 162 325 67 43 190 288 234 214 185 191 188 214 178 167 177 176 149 223 283 212 176 152 110 49 102 74 320 328 350 239 162 219 252 229 223 222 250 269 217 189
201 158 186 204 143 133 58 56 215 206 210 36 95 82 194 156 245 179 155 217 240 95 112 185 275 177 177 193 179 177 169 167 229 229 278 346 246 265 227 255 256 240 249 225 186
138 149 174 204 150 85 82 215 208 179 196 164 107 173 238 229 207 154 211 216 209 172 189 174 263 104 158 141 139 184 191 170 99 112 346 239 275 281 260 275 261 256 244 228 196
165 197 189 156 152 140 107 236 210 197 147 150 198 182 206 202 174 186 178 196 221 196 102 223 304 158 155 132 40 174 172 79 8 253 263 268 275 252 242 238 241 233 230 224 199
163 219 217 139 134 195 222 226 215 213 168 174 206 227 209 191 197 206 220 229 206 163 153 144 150 228 122 211 167 132 217 101 155 161 200 275 266 207 228 195 223 223 223 209 199
170 210 160 158 180 209 231 197 201 224 199 247 204 213 210 184 203 221 212 216 155 150 161 202 154 231 235 208 334 220 199 174 195 228 255 140 271 205 211 214 220 226 232 212 202
202 190 194 190 203 214 228 268 234 202 193 223 232 201 193 205 235 189 220 201 156 155 168 177 219 250 264 89 18 221 197 222 256 127 200 177 255 113 208 244 221 233 225 213 198
162 174 167 235 225 209 218 242 238 237 243 257 257 195 130 236 234 258 230 202 196 194 193 160 178 196 231 230 133 186 219 216 219 228 229 233 258 268 264 276 270 259 224 214 202
177 194 192 192 217 219 192 202 231 229 213 200 248 231 207 237 247 243 241 234 186 220 134 172 231 226 247 256 182 212 237 216 216 231 216 250 243 254 264 264 273 276 237 206 193
211 171 180 222 211 209 210 226 242 237 172 218 230 227 228 237 233 250 234 181 217 10 184 213 253 246 255 255 204 251 255 236 231 238 245 254 260 259 268 279 281 277 251 210 203
229 194 189 189 209 210 212 221 227 230 245 244 237 240 246 240 248 265 278 226 241 227 195 173 189 192 252 230 118 264 245 239 255 241 231 242 252 275 270 266 263 267 208 215 209